Location: Newark
(16.3678°N, 77.8722°E)
Time: 18:04:10
(UTC+00:00)

S-56A Canister/Altair - Pass Details

Date: 11 December 2019
Orbit: 634 x 2498 km, 38.9° (Epoch: 26 January)

Event Time Altitude Azimuth Distance (km) Brightness Sun altitude
Rises 05:24:57 0° 272° (W) 5,606 11.7 46.4°
Reaches altitude 10° 05:28:56 10° 281° (W) 4,805 11.4 46.8°
Maximum altitude 05:41:25 35° 342° (NNW) 3,496 10.8 48.0°
Drops below altitude 10° 05:54:30 10° 43° (NE) 5,005 11.6 49.0°
Sets 05:58:49 0° 52° (NE) 5,855 11.9 49.3°
